Temperature
17 17 17 17 16 16 16 16 16 16 16 16 16 16 16 17 17 16 16 16 16 16 16 16 16 16 16 16 16 16 16 16 16 16 16 16 16 16 15 15 15 15 15
17 17 17 16 16 16 16 16 16 16 16 16 16 16 16 16 16 16 16 16 16 16 16 16 16 16 16 16 16 16 16 16 16 16 16 16 16 15 15 15 15 15 15
16 17 16 16 16 16 16 16 16 16 16 16 16 16 16 16 16 16 16 16 16 16 16 16 16 16 16 16 16 16 16 16 15 15 15 15 15 15 15 15 15 15 15
16 16 16 16 16 16 16 16 16 16 16 16 16 16 16 16 16 15 15 16 16 16 16 16 16 16 16 16 16 16 16 15 15 15 15 15 15 15 15 15 15 15 15
16 16 16 16 16 16 16 16 16 16 16 16 16 16 16 15 15 15 15 15 15 15 15 15 16 16 16 16 16 16 15 15 15 14 14 15 15 15 15 15 15 15 15
15 15 16 16 16 16 16 16 15 15 15 15 16 15 15 15 15 15 15 15 15 15 15 15 15 15 15 15 15 15 15 15 14 14 14 14 15 15 15 15 15 15 15
15 15 15 15 15 15 15 15 15 15 15 15 15 15 15 15 15 15 15 15 15 15 15 15 15 15 15 15 15 15 15 14 14 14 14 14 14 14 14 15 15 14 14
15 15 15 15 15 15 15 15 15 15 15 15 15 15 15 15 15 15 15 15 15 15 15 15 15 15 15 15 15 15 15 14 14 14 14 14 14 14 14 14 14 14 14
14 14 14 15 15 15 15 15 15 15 15 15 15 15 15 15 15 15 15 15 15 15 15 15 15 15 15 15 15 15 14 14 14 14 14 14 14 14 14 14 14 14 14
14 14 14 14 14 14 14 14 15 15 15 15 15 15 15 15 15 15 15 15 15 15 15 15 15 15 15 15 15 15 14 14 14 14 14 14 14 14 14 14 14 14 14
13 13 13 13 14 14 14 14 14 14 14 14 14 14 14 14 14 14 15 15 14 15 15 15 15 15 15 14 14 14 14 14 14 14 14 14 14 14 14 14 14 14 14
13 13 13 13 13 13 13 14 14 14 14 14 14 14 14 14 14 14 14 14 14 14 14 14 14 14 14 14 14 14 14 13 13 13 13 13 14 14 14 13 14 13 13
13 13 13 13 13 13 13 13 13 13 13 13 13 13 13 14 14 14 14 14 14 14 14 14 14 14 14 14 14 14 13 13 13 13 13 13 13 13 13 13 13 13 13
12 13 13 13 13 13 13 13 13 13 13 13 13 13 13 13 13 14 14 14 14 14 14 14 14 13 13 13 13 13 13 13 13 13 13 13 13 13 13 13 13 13 13
12 12 12 12 12 12 12 12 12 13 13 13 13 13 13 13 13 13 13 14 14 13 13 13 13 13 13 13 13 13 13 13 13 13 13 13 13 13 13 13 13 13 13
12 12 12 12 12 12 12 12 12 12 12 13 13 13 13 13 13 13 13 13 13 13 13 13 13 13 13 13 13 13 13 13 12 13 13 13 13 13 13 13 13 13 13
11 12 12 12 12 12 12 12 12 12 12 12 12 12 12 13 13 13 13 13 13 13 13 13 13 13 13 13 13 13 13 12 12 12 12 13 13 13 13 13 13 13 12
11 11 11 11 11 11 11 11 11 11 12 12 12 12 12 12 13 13 13 13 13 13 13 13 13 13 12 12 12 12 12 12 12 12 12 12 12 13 13 13 12 12 12
11 11 11 11 11 11 11 11 11 11 11 11 12 12 12 12 12 13 13 13 13 13 13 12 12 12 12 12 12 12 12 12 12 12 12 12 12 12 12 12 12 12 12
10 10 10 11 11 10 11 11 10 11 11 11 11 12 12 12 12 12 12 13 13 12 12 12 12 12 12 12 12 12 12 12 12 12 12 12 12 12 12 12 12 12 12
10 10 10 10 10 10 10 10 10 10 11 11 11 11 11 12 12 12 12 12 12 12 12 12 12 12 12 12 11 11 11 11 11 11 11 11 11 11 11 11 11 11 11
10 10 10 10 10 10 10 10 10 10 10 11 11 11 11 11 12 12 12 12 12 12 12 12 12 12 11 11 11 11 11 11 11 11 11 11 11 11 11 11 11 11 11
9 9 9 9 9 10 10 10 10 10 10 10 10 11 11 11 11 11 11 11 11 11 11 11 11 11 11 11 11 10 10 10 10 10 11 11 11 11 10 10 11 11 11
9 9 9 9 9 9 9 10 10 10 9 10 10 10 10 10 11 11 11 11 11 11 11 11 11 11 11 11 10 10 10 10 10 10 10 10 10 10 10 10 10 10 10
9 9 9 9 9 9 9 9 9 9 9 9 9 10 10 10 10 10 10 10 10 10 10 10 10 10 10 10 10 10 10 10 10 10 9 9 9 9 9 10 10 10 10
8 8 8 9 8 9 8 9 9 9 9 9 9 9 9 9 10 10 10 10 10 10 10 10 10 10 10 10 10 10 10 10 10 9 9 9 9 9 9 9 9 9 9
Wind_Speed
8 11 11 10 9 8 8 9 9 9 9 9 9 9 9 9 9 9 9 10 10 10 10 10 10 11 11 11 11 11 12 12 12 12 12 12 12 12 12 12 12 13 13
9 12 12 10 9 8 8 8 9 8 9 8 8 9 9 9 9 9 9 9 10 9 10 10 10 10 10 11 11 11 11 10 10 10 11 11 12 11 11 12 12 11 12
9 12 11 10 9 9 8 8 8 8 8 8 8 8 8 8 8 8 8 9 10 10 9 9 10 10 10 10 10 10 9 8 7 7 7 9 11 10 10 11 11 11 11
8 11 10 10 9 9 8 7 8 8 8 8 8 8 8 7 7 8 8 8 9 9 9 9 10 9 9 9 9 8 7 5 3 2 4 8 10 10 10 10 10 10 10
7 10 11 11 9 8 8 7 7 7 7 7 7 7 7 7 7 8 8 8 8 9 9 9 9 9 9 9 8 7 5 2 1 0 6 12 12 10 10 10 9 9 9
6 9 10 10 9 8 8 7 6 6 6 6 7 7 7 7 7 7 8 8 9 9 9 9 9 8 8 8 7 6 3 0 2 1 8 12 11 10 10 9 9 8 8
5 8 10 10 9 8 8 7 7 6 6 6 7 7 7 7 7 7 8 8 9 9 9 9 8 8 8 7 6 4 2 1 2 3 9 11 10 9 9 8 8 8 8
5 6 8 9 9 8 8 7 7 6 6 6 7 7 7 7 7 8 8 9 9 9 9 9 8 8 7 7 5 3 2 2 1 5 10 11 10 9 8 7 7 7 7
4 4 6 7 8 8 7 7 7 7 6 6 7 7 6 7 7 7 8 9 9 9 8 8 8 7 7 6 5 4 3 2 3 4 8 10 10 8 7 6 6 6 6
3 4 4 6 7 7 7 7 8 8 7 6 7 7 7 7 7 8 8 9 9 9 8 8 8 8 7 7 6 5 4 3 2 4 8 10 9 7 6 6 5 5 5
1 3 4 4 5 7 6 6 7 8 8 7 7 9 9 7 8 8 8 9 9 9 9 8 8 8 8 7 7 6 4 3 2 5 8 10 8 7 6 5 5 5 5
2 2 3 4 4 5 6 6 6 7 8 8 8 9 8 7 7 7 9 10 10 9 9 8 8 8 7 7 6 6 4 4 3 6 8 10 8 6 5 5 5 6 6
2 2 2 3 3 4 4 5 5 5 6 6 7 7 7 7 6 6 7 8 9 9 7 8 8 7 6 5 5 5 4 3 4 7 9 10 8 6 5 5 5 5 5
2 2 2 3 3 4 4 4 4 4 4 4 6 6 5 4 4 4 4 5 6 6 5 5 5 5 5 5 5 5 5 2 5 8 9 10 8 6 5 4 4 4 4
2 2 1 3 4 4 3 3 4 3 4 5 5 6 6 3 3 3 4 5 5 4 4 4 3 3 3 3 3 3 2 2 5 8 9 10 9 7 5 4 3 3 3
3 2 2 3 4 4 4 4 3 4 4 5 5 6 6 5 4 3 3 4 4 4 4 3 3 2 2 2 2 1 2 2 4 7 9 9 8 7 5 4 3 2 2
2 3 2 2 3 4 4 4 3 4 5 4 4 5 6 6 4 4 3 3 4 5 4 3 2 2 2 2 2 1 1 2 3 5 8 8 8 7 5 4 3 2 1
2 3 3 2 3 4 3 2 2 3 4 4 4 5 6 6 5 4 3 3 4 4 3 2 2 2 2 2 1 1 1 1 2 3 6 7 7 6 5 5 4 3 2
3 3 3 3 3 4 4 2 2 3 3 4 5 4 5 5 5 5 3 3 5 3 2 2 2 2 2 2 2 1 1 1 1 2 4 6 5 6 5 5 4 4 3
3 4 4 3 3 3 4 3 2 3 3 3 3 4 5 5 6 5 4 4 4 3 3 3 2 2 2 2 2 2 1 1 1 1 2 4 5 4 5 4 4 4 3
4 4 3 3 3 3 3 3 3 3 3 3 3 4 4 4 5 5 4 4 4 4 4 4 3 2 2 2 2 1 1 0 1 1 2 2 3 4 4 4 4 4 3
5 4 4 3 3 4 3 3 3 3 2 3 3 4 4 4 5 5 4 4 4 3 3 3 3 2 1 2 2 2 1 1 1 1 2 2 2 2 2 3 3 3 3
4 4 4 4 3 3 3 3 3 2 2 2 3 3 3 4 4 4 4 4 4 4 4 3 3 3 3 1 2 2 2 2 1 1 1 2 2 2 1 2 2 3 3
4 4 4 4 4 3 3 4 5 4 3 2 3 3 4 4 4 4 4 4 4 3 4 4 3 2 3 3 1 1 1 3 2 1 1 1 2 2 2 1 1 2 3
4 4 4 5 4 3 3 5 5 4 2 2 3 4 4 3 3 3 3 3 3 3 3 4 3 3 3 3 2 1 1 1 1 2 1 1 0 0 1 1 1 1 2
5 5 5 5 4 4 3 4 5 5 4 4 4 3 3 3 2 2 3 3 3 2 3 3 3 3 3 2 2 2 2 2 2 2 2 2 2 1 1 1 1 1 2
Wind_Direction
110 119 122 117 116 120 124 126 125 124 122 120 121 124 125 128 125 121 119 117 116 112 109 106 103 102 101 97 95 92 90 88 88 89 88 86 82 80 76 74 74 78 78
115 122 122 119 116 117 124 128 127 127 127 126 124 126 129 133 135 132 129 125 121 117 113 110 105 105 104 101 98 98 97 96 97 98 94 90 85 81 76 73 77 82 78
114 123 123 121 121 118 118 125 128 128 129 129 128 127 130 135 140 140 136 131 124 120 116 112 106 106 109 108 104 101 101 104 111 114 111 108 95 85 81 80 82 82 80
114 124 126 125 125 123 118 119 129 132 132 133 135 133 132 136 141 142 140 136 131 126 120 113 110 109 114 114 111 110 112 117 129 140 119 108 98 87 84 85 84 83 82
109 119 127 130 130 128 126 123 126 135 138 136 139 139 138 137 139 140 139 137 134 130 124 119 116 117 119 117 115 117 123 129 245 287 88 96 93 89 84 82 81 81 81
112 116 129 138 138 134 131 132 132 138 145 145 142 143 143 142 140 142 141 138 135 132 130 125 122 125 125 124 123 126 133 211 302 86 95 95 94 92 85 79 78 76 78
114 117 132 142 147 145 143 142 140 138 145 149 147 147 149 148 146 144 142 142 140 135 136 134 131 132 132 130 131 137 162 293 298 91 91 96 101 96 87 80 77 76 76
107 114 135 143 148 152 154 153 152 144 148 156 155 151 154 154 151 149 147 147 146 141 142 141 139 138 138 137 142 158 202 304 346 93 97 98 104 99 90 83 81 77 74
101 115 130 145 150 151 155 162 161 155 153 162 164 161 155 155 156 155 152 150 148 145 144 145 147 145 147 148 156 181 227 289 332 87 103 103 106 100 95 89 85 80 74
112 123 136 153 155 155 154 165 168 162 161 166 172 169 163 158 158 161 155 154 151 148 149 150 155 153 155 159 170 194 232 276 296 85 99 110 113 103 98 96 91 82 75
139 138 149 160 158 157 161 172 170 168 171 174 176 174 172 174 163 161 159 159 158 157 155 157 163 161 161 171 182 202 224 248 157 101 103 117 119 112 101 94 88 87 81
200 175 162 163 158 154 166 171 178 179 180 183 180 181 182 165 164 165 165 168 168 168 167 169 171 172 169 177 190 200 216 240 150 107 112 123 120 116 108 99 93 84 79
208 201 174 168 160 160 166 172 177 178 183 182 177 181 168 162 164 157 157 168 172 170 171 173 171 176 174 172 167 182 216 227 136 112 120 127 123 116 110 104 102 90 81
209 209 189 172 167 174 177 169 168 170 171 167 175 178 166 152 152 155 153 159 160 164 164 165 169 176 177 165 168 184 209 194 133 121 129 133 130 123 117 110 105 97 89
202 205 204 188 182 184 188 182 176 172 168 162 170 176 169 154 163 155 149 150 153 158 159 161 162 169 164 152 162 178 181 158 132 126 130 136 135 129 125 122 115 109 100
194 195 211 203 192 187 195 191 182 162 159 160 164 167 166 155 152 157 151 147 149 156 159 157 161 153 150 140 135 155 153 143 128 131 136 139 141 141 139 139 135 125 108
183 179 187 199 192 185 198 202 175 161 158 152 158 165 163 161 158 154 155 156 153 155 153 148 146 129 140 141 149 141 96 119 130 134 139 144 149 151 152 153 153 144 125
180 185 191 200 187 183 182 200 166 161 154 147 151 158 159 162 160 149 150 151 139 140 135 144 152 142 140 136 137 157 121 118 132 135 138 141 147 150 154 159 162 158 150
183 179 175 180 184 182 172 173 165 155 151 140 141 147 152 157 154 142 144 143 140 129 132 149 141 141 144 136 131 132 121 137 135 117 131 136 141 145 148 155 163 169 162
175 163 166 176 181 181 174 160 155 156 160 140 139 148 153 157 153 142 143 143 139 144 150 143 139 122 130 136 122 110 94 131 142 136 134 129 139 146 151 151 157 166 169
150 147 155 159 168 158 169 164 166 172 168 159 150 152 152 151 148 148 149 146 145 153 156 144 139 135 109 94 98 92 19 52 157 165 142 133 137 151 160 155 151 150 150
155 154 152 148 164 169 180 177 177 169 171 166 158 155 147 146 152 151 145 150 146 146 145 144 135 140 122 111 128 129 119 1 312 191 152 147 145 134 146 152 148 144 138
151 156 164 160 162 164 168 156 150 133 134 154 156 159 142 132 131 134 140 142 152 155 157 152 144 144 159 159 126 132 139 189 233 254 185 156 158 148 145 139 141 136 134
159 158 158 152 145 151 152 147 147 149 160 174 159 144 124 116 119 124 131 138 147 150 153 158 150 148 154 167 167 113 136 137 143 178 282 190 163 141 142 129 116 128 121
149 155 156 144 137 131 143 144 148 139 136 126 126 128 130 117 106 110 115 128 138 141 148 151 158 157 160 163 161 167 183 128 127 151 205 238 284 196 156 140 125 112 123
148 149 148 141 141 137 142 150 148 144 141 137 134 138 129 120 110 99 110 101 110 126 142 151 155 154 164 157 157 154 156 162 175 170 190 202 217 246 215 158 154 152 146
Height
1507 1508 1510 1511 1512 1514 1516 1518 1519 1521 1522 1524 1525 1527 1528 1529 1531 1532 1534 1535 1536 1537 1538 1539 1540 1541 1542 1542 1543 1544 1545 1545 1546 1547 1547 1547 1548 1548 1549 1549 1549 1549 1550
1506 1508 1510 1511 1512 1514 1516 1518 1519 1521 1523 1524 1525 1527 1528 1530 1531 1532 1534 1535 1536 1538 1539 1540 1541 1542 1543 1543 1544 1545 1546 1547 1547 1548 1548 1549 1549 1550 1550 1550 1551 1551 1551
1506 1507 1509 1511 1512 1514 1515 1517 1519 1521 1522 1524 1526 1527 1528 1530 1531 1533 1534 1535 1537 1538 1539 1540 1541 1542 1543 1544 1545 1546 1547 1548 1549 1549 1550 1550 1551 1551 1551 1552 1552 1552 1552
1506 1507 1509 1510 1512 1513 1515 1517 1519 1521 1522 1524 1525 1527 1528 1530 1531 1533 1534 1535 1537 1538 1539 1540 1542 1543 1543 1544 1545 1547 1548 1549 1550 1550 1551 1552 1552 1552 1553 1553 1553 1553 1553
1506 1507 1508 1510 1511 1513 1515 1516 1518 1520 1522 1523 1525 1527 1528 1530 1531 1533 1534 1535 1537 1538 1539 1541 1542 1543 1544 1545 1546 1547 1548 1550 1551 1552 1552 1553 1553 1553 1554 1554 1554 1554 1554
1506 1507 1508 1509 1511 1512 1514 1516 1517 1519 1521 1523 1524 1526 1528 1529 1531 1532 1534 1535 1537 1538 1539 1541 1542 1543 1544 1545 1546 1547 1549 1550 1552 1552 1553 1553 1554 1554 1554 1554 1555 1555 1555
1505 1506 1507 1509 1510 1511 1513 1515 1516 1518 1520 1522 1523 1525 1527 1528 1530 1532 1533 1535 1536 1538 1539 1540 1542 1543 1544 1545 1546 1548 1549 1550 1552 1553 1553 1554 1554 1554 1555 1555 1555 1555 1555
1504 1505 1506 1507 1509 1510 1512 1513 1515 1517 1519 1520 1522 1524 1526 1528 1529 1531 1532 1534 1536 1537 1539 1540 1541 1542 1544 1545 1546 1548 1549 1550 1552 1553 1553 1554 1554 1554 1555 1555 1555 1555 1556
1503 1504 1505 1506 1507 1509 1510 1512 1514 1516 1517 1519 1521 1523 1525 1527 1528 1530 1532 1533 1535 1537 1538 1539 1541 1542 1543 1545 1546 1548 1549 1550 1552 1553 1553 1554 1554 1554 1555 1555 1555 1555 1556
1502 1502 1503 1504 1505 1506 1508 1510 1512 1514 1516 1518 1520 1522 1523 1525 1527 1529 1531 1532 1534 1536 1537 1539 1540 1542 1543 1544 1546 1547 1549 1550 1552 1552 1553 1553 1554 1554 1554 1555 1555 1555 1555
1500 1500 1501 1502 1503 1504 1506 1508 1510 1512 1514 1516 1518 1520 1522 1524 1526 1527 1529 1531 1533 1535 1536 1538 1540 1541 1542 1544 1545 1547 1548 1550 1551 1552 1552 1553 1553 1554 1554 1554 1555 1555 1555
1497 1498 1499 1499 1501 1502 1503 1505 1508 1510 1512 1514 1516 1518 1520 1522 1524 1526 1528 1530 1532 1534 1535 1537 1539 1540 1542 1543 1545 1546 1548 1549 1550 1551 1552 1552 1553 1553 1553 1554 1554 1554 1554
1495 1495 1496 1497 1498 1499 1501 1503 1505 1507 1509 1512 1514 1516 1518 1520 1522 1524 1526 1528 1530 1532 1534 1536 1538 1539 1541 1542 1544 1545 1547 1549 1550 1550 1551 1552 1552 1552 1553 1553 1553 1554 1554
1492 1493 1493 1494 1495 1497 1498 1500 1502 1504 1507 1509 1511 1514 1516 1518 1520 1522 1524 1526 1528 1530 1533 1534 1536 1538 1540 1542 1543 1544 1546 1548 1549 1549 1550 1551 1551 1552 1552 1552 1553 1553 1553
1488 1489 1490 1491 1493 1494 1495 1497 1499 1502 1504 1506 1509 1511 1514 1516 1518 1520 1522 1525 1527 1529 1531 1533 1535 1537 1539 1540 1542 1544 1545 1546 1548 1548 1549 1549 1550 1550 1551 1551 1552 1552 1552
1485 1486 1487 1488 1489 1490 1492 1494 1497 1499 1501 1504 1506 1509 1511 1514 1516 1519 1521 1523 1525 1527 1529 1531 1533 1535 1537 1539 1540 1542 1544 1545 1546 1547 1548 1548 1549 1549 1550 1550 1551 1551 1551
1481 1482 1483 1484 1486 1487 1489 1492 1494 1496 1498 1501 1503 1506 1508 1511 1514 1516 1518 1521 1523 1525 1527 1529 1531 1533 1535 1537 1539 1540 1542 1543 1545 1546 1546 1547 1547 1548 1549 1549 1549 1549 1550
1478 1479 1480 1481 1482 1484 1486 1488 1491 1493 1495 1497 1500 1503 1506 1508 1511 1514 1516 1518 1521 1523 1525 1527 1529 1531 1533 1535 1537 1538 1540 1542 1543 1544 1545 1545 1546 1546 1547 1548 1548 1548 1548
1475 1476 1476 1478 1479 1480 1482 1485 1488 1490 1492 1495 1497 1500 1503 1506 1509 1511 1513 1516 1518 1520 1523 1525 1527 1529 1531 1533 1535 1536 1538 1539 1541 1542 1543 1544 1544 1545 1545 1546 1546 1546 1547
1472 1473 1474 1475 1476 1477 1479 1482 1485 1487 1490 1492 1494 1497 1501 1503 1506 1509 1511 1514 1516 1518 1521 1523 1525 1527 1529 1531 1532 1534 1535 1537 1538 1540 1541 1542 1542 1543 1544 1544 1544 1545 1545
1468 1469 1470 1472 1473 1474 1476 1478 1481 1484 1487 1489 1492 1495 1498 1501 1503 1506 1508 1511 1513 1516 1518 1520 1522 1524 1526 1528 1530 1532 1533 1535 1536 1538 1539 1539 1540 1541 1542 1542 1542 1542 1542
1465 1466 1468 1469 1470 1472 1474 1476 1479 1482 1484 1487 1490 1493 1495 1498 1500 1503 1506 1508 1510 1513 1515 1517 1519 1521 1523 1525 1527 1529 1530 1533 1534 1535 1536 1537 1538 1539 1539 1540 1540 1540 1540
1461 1463 1465 1466 1468 1469 1472 1474 1477 1480 1482 1485 1487 1490 1493 1495 1497 1500 1503 1505 1508 1510 1512 1514 1516 1519 1520 1523 1524 1526 1528 1529 1531 1533 1533 1535 1536 1536 1536 1537 1537 1538 1538
1459 1461 1462 1464 1466 1467 1469 1471 1474 1476 1479 1481 1484 1488 1490 1493 1495 1497 1500 1503 1505 1507 1509 1512 1514 1516 1518 1520 1521 1523 1525 1526 1528 1529 1531 1532 1533 1534 1534 1534 1535 1535 1535
1456 1458 1460 1461 1463 1465 1466 1468 1471 1474 1477 1479 1482 1485 1488 1490 1493 1495 1498 1500 1502 1504 1507 1509 1511 1513 1515 1517 1519 1520 1522 1524 1525 1526 1527 1529 1530 1531 1531 1532 1532 1532 1532
1453 1455 1457 1459 1461 1463 1465 1466 1468 1471 1475 1477 1480 1482 1485 1488 1491 1493 1495 1497 1499 1502 1504 1506 1508 1510 1512 1514 1516 1518 1519 1520 1522 1523 1524 1524 1526 1527 1528 1529 1529 1529 1529